Погода в Наракурте

Австралия     36°57′27″S   140°44′05″E
темп.,
°C
ветер,
м/с
пор.,
м/с
влажн.,
%
обл.,
%
осадки,
мм/ч
давл.,
гПа
погр.,
м
18 сентября, сб
сб1800:30+9зсз7149327 0.4 1011870
03:30+8зсз514895 0.5 1012529
06:30+7зсз5148619 0.1 1014447
09:30+12з9147348 0.5 10171624
12:30+14з91251100 0.2 10172300
15:30+12з7116313 0.3 10181715
18:30+8зсз48825 0.1 1019156
21:30+6ссз4986100 0.1 1020167
19 сентября, вс
вс1900:30+7ссз513945 0.0 1018295
03:30+7ссз7159210 0.0 1017479
06:30+8ссз71688100 0.0 1017656
09:30+12сз91677100 0.0 10171160
12:30+15сз101673100 0.0 10151324
15:30+12зсз91794100 1.4 10131142
18:30+11з51195100 1.4 1014719
21:30+9з5128993 1.6 1015770
20 сентября, пн
пн2000:30+8з51288100 0.1 1015523
03:30+8з6137797 0.2 1014537
06:30+7зсз41294100 0.4 1014472
09:30+10зюз61085100 1.9 10151165
12:30+10юз8118495 2.1 10141589
15:30+9юз7118616 4.0 10151371
18:30+5ююз5139134 1.1 1018425
21:30+3юз3129442 1.5 1022277
21 сентября, вт
вт2100:30+3юз4139210 0.1 1023287
03:30+3юз38916 0.1 1025149
06:30+5юз31191100 0.0 1028352
09:30+11ююз5106643 0.1 10291587
12:30+13юз784975 0.1 10291892
15:30+12юз8959100 0.1 10291477
18:30+10юз5973100 0.0 1030616
21:30+10зюз41084100 0.0 1030545
22 сентября, ср
ср2200:30+10зюз41089100 0.1 1029446
03:30+10з3894100 0.1 1028267
06:30+9з369799 0.0 1028149
09:30+13зюз5777100 0.1 1028934
12:30+13з5772100 0.0 10261037
15:30+13з5874100 0.0 10241184
18:30+12зсз5976100 0.1 1023692
21:30+12з61069100 0.1 10221014